This is the latest recevied weather packets stored in our database for station/object KQ4LLM. If no packets are shown the sender has not sent any weather packets the latest 10 day(s).
| Time | Temp. | Humidity | Pressure | Rain* | Wind** | Luminosity | Snow |
|---|---|---|---|---|---|---|---|
| 1787949679 | 21.67° C | 97% | - | 6.1 mm | - | - | - |
| 1787949375 | 21.67° C | 95% | - | 6.1 mm | - | - | - |
| 1787949072 | 22.22° C | 96% | - | 11.94 mm | - | - | - |
| 1787948769 | 22.22° C | 94% | - | 10.67 mm | - | - | - |
| 1787948463 | 23.33° C | 92% | - | 4.83 mm | - | - | - |
| 1787948159 | 24.44° C | 88% | - | 6.1 mm | - | - | - |
| 1787947858 | 26.67° C | 80% | - | 1.27 mm | - | - | - |
| 1787947557 | 28.89° C | 66% | - | 0 mm | - | - | - |
| 1787947252 | 30° C | 64% | - | 0 mm | - | - | - |
| 1787946951 | 30.56° C | 63% | - | 0 mm | - | - | - |
| 1787946649 | 30.56° C | 58% | - | 0 mm | - | - | - |
| 1787946344 | 30.56° C | 59% | - | 0 mm | - | - | - |
| 1787946039 | 30.56° C | 64% | - | 0 mm | - | - | - |
| 1787945738 | 30.56° C | 60% | - | 0 mm | - | - | - |
| 1787945434 | 31.67° C | 62% | - | 0 mm | - | - | - |
| 1787945130 | 31.67° C | 57% | - | 0 mm | - | - | - |
| 1787944827 | 32.22° C | 53% | - | 0 mm | - | - | - |
| 1787944522 | 31.67° C | 58% | - | 0 mm | - | - | - |
| 1787944218 | 31.67° C | 58% | - | 0 mm | - | - | - |
| 1787943917 | 31.11° C | 58% | - | 0 mm | - | - | - |
| 1787943613 | 31.11° C | 62% | - | 0 mm | - | - | - |
| 1787943307 | 30.56° C | 60% | - | 0 mm | - | - | - |
| 1787943003 | 30° C | 60% | - | 0 mm | - | - | - |
| 1787942698 | 30° C | 62% | - | 0 mm | - | - | - |
| 1787942397 | 30° C | 63% | - | 0 mm | - | - | - |
* Rain latest hour (hover to see other rain measurements)
** Current wind speed in m/s (hover to see current wind gust speed)